[[{"header":{"parameterUnit":"m.s-1","parameterCategory":2,"la1":30.2991,"la2":30.254,"lo1":-89.0895,"lo2":-89.0444,"dy":0.0017,"dx":0.0017,"nx":28,"ny":28,"refTime":"2025-08-23T03:00:00:Z","depth":"0","parameterNumber":2,"parameterNumberName":"U-component_of_CURRENTS"},"data":[0,0,0,0,0,0,0,0,0,0,0,0,0,0,0,0,0,0,0,0,0,0,0,0,0,0,0,0,0,0,0,0,0,0,0,0,0,0,0,0,0,0,0,0,0,0,0,0,0,0,0,0,0,0,0,0,0,0,-0.1906,-0.1907,0,-0.202,-0.2021,-0.2022,-0.1961,-0.1958,-0.1955,-0.1952,-0.195,-0.1953,-0.1956,0,0,0,0,0,0,0,0,0,0,0,0,0,-0.179,-0.1792,-0.1906,-0.1907,-0.1909,-0.202,-0.2021,-0.2023,-0.1962,-0.1958,-0.1954,-0.1951,-0.1949,-0.1953,-0.1956,0,0,0,0,0,0,0,0,0,0,0,0,0,-0.1865,-0.1792,-0.1905,-0.1892,-0.1892,-0.2019,-0.2021,-0.2023,-0.1962,-0.1958,-0.1953,-0.1949,-0.1948,-0.1952,-0.1956,-0.2073,0,0,-0.1969,-0.1971,0,0,0,0,0,0,0,0,-0.186,-0.1869,-0.1893,-0.1893,-0.1894,-0.1972,-0.198,-0.2034,-0.1964,-0.1935,-0.1952,-0.1947,-0.1951,-0.1955,-0.1987,-0.2073,-0.2072,-0.1969,-0.1972,-0.1974,-0.1975,0,0,0,0,0,0,0,-0.1855,-0.1865,-0.195,-0.1895,-0.1895,-0.1934,-0.1938,-0.1991,-0.1964,-0.1937,-0.1933,-0.1949,-0.1949,-0.1983,-0.1986,-0.2072,-0.1969,-0.1973,-0.1976,-0.1977,-0.2105,-0.2105,0,0,0,0,0,0,-0.184,-0.1859,-0.1946,-0.1953,-0.1867,-0.1939,-0.1944,-0.1951,-0.1966,-0.1965,-0.1952,-0.1945,-0.1978,-0.1981,-0.1985,-0.2025,-0.1974,-0.1978,-0.198,-0.2104,-0.2105,-0.2106,0,0,0,0,0,0,-0.1837,-0.1847,-0.1942,-0.191,-0.1924,-0.1945,-0.1954,-0.1956,-0.1974,-0.1979,-0.1974,-0.1967,-0.1975,-0.1979,-0.2011,-0.2027,-0.1979,-0.1983,-0.2103,-0.2104,-0.2105,-0.2166,0,0,0,0,0,0,-0.1833,-0.1845,-0.1849,-0.1909,-0.1926,-0.2016,-0.1959,-0.1961,-0.1992,-0.1984,-0.1992,-0.1987,-0.1971,-0.2005,-0.2015,-0.2032,-0.1986,-0.2101,-0.2103,-0.2105,-0.2163,-0.2169,-0.2175,0,0,0,0,0,-0.1829,-0.1856,-0.1848,-0.1859,-0.1928,-0.2019,-0.2033,-0.2031,-0.1997,-0.2027,-0.201,-0.1986,-0.202,-0.2011,-0.2022,-0.204,-0.2101,-0.2103,-0.2105,-0.216,-0.2168,-0.2175,0,0,0,0,0,0,-0.181,-0.1855,-0.1846,-0.1884,-0.1944,-0.2008,-0.204,-0.2046,-0.2066,-0.2046,-0.2026,-0.2024,-0.2047,-0.2048,-0.2036,-0.2077,-0.2048,-0.2052,-0.2086,-0.2094,-0.21,-0.209,-0.199,0,0,0,0,0,-0.181,-0.1832,-0.1894,-0.1923,-0.1956,-0.2002,-0.2037,-0.2047,-0.2076,-0.208,-0.208,-0.2072,-0.2077,-0.2084,-0.2095,-0.2151,-0.2145,-0.2159,-0.2165,-0.217,-0.2168,-0.2182,-0.2189,-0.2112,-0.2112,-0.2112,0,0,-0.181,-0.1838,-0.1849,-0.192,-0.1963,-0.2026,-0.2011,-0.2078,-0.2108,-0.2081,-0.211,-0.2106,-0.2096,-0.2128,-0.2138,-0.2124,-0.2192,-0.2173,-0.2178,-0.2172,-0.2184,-0.2192,-0.2198,-0.2114,-0.2113,-0.2113,0,0,-0.1845,-0.1851,-0.1893,-0.1948,-0.2022,-0.2053,-0.2073,-0.2145,-0.2147,-0.2201,-0.2161,-0.2172,-0.2201,-0.2191,-0.2188,-0.2247,-0.2223,-0.2238,-0.2269,-0.2283,-0.2289,-0.2295,-0.2312,-0.2318,-0.2242,-0.2243,-0.2243,0,-0.1843,-0.1894,-0.1926,-0.1992,-0.2031,-0.2062,-0.2129,-0.216,-0.2222,-0.2234,-0.2205,-0.2235,-0.2229,-0.2253,-0.2249,-0.2262,-0.2259,-0.2244,-0.2291,-0.2296,-0.2301,-0.2317,-0.2323,-0.2246,-0.2245,-0.2245,-0.2245,0,-0.1915,-0.1961,-0.1999,-0.2067,-0.212,-0.2187,-0.2234,-0.227,-0.2269,-0.2292,-0.2321,-0.2319,-0.2326,-0.2325,-0.2301,-0.233,-0.2315,-0.2298,-0.2274,-0.2312,-0.2327,-0.2332,-0.225,-0.2249,-0.2248,-0.2247,0,0,-0.1888,-0.2021,-0.2027,-0.2072,-0.2162,-0.2213,-0.2267,-0.233,-0.2349,-0.2384,-0.2407,-0.2415,-0.2405,-0.2398,-0.238,-0.2386,-0.2418,-0.2349,-0.2349,-0.2368,-0.2447,-0.2278,-0.2267,-0.2403,-0.2404,-0.2404,-0.245,0,-0.1929,-0.2044,-0.2101,-0.2195,-0.2258,-0.2303,-0.2346,-0.2398,-0.2418,-0.2448,-0.2448,-0.2461,-0.2434,-0.2429,-0.2436,-0.2415,-0.2432,-0.2407,-0.2404,-0.2404,-0.225,-0.2267,-0.216,-0.2175,-0.2455,-0.2456,-0.2456,0,-0.1967,-0.2038,-0.2139,-0.2249,-0.228,-0.2328,-0.2385,-0.2436,-0.2483,-0.2499,-0.2522,-0.2516,-0.2532,-0.2492,-0.2505,-0.2486,-0.247,-0.2458,-0.2459,-0.2278,-0.2243,-0.2179,-0.2175,-0.2161,-0.2464,-0.2464,-0.2463,0,-0.1906,-0.2055,-0.212,-0.2161,-0.2291,-0.2326,-0.2377,-0.244,-0.2466,-0.2522,-0.2536,-0.2569,-0.2562,-0.2564,-0.2514,-0.252,-0.2506,-0.2521,-0.237,-0.2359,-0.2253,-0.2229,-0.223,-0.2538,-0.2538,-0.2537,-0.2537,0,-0.1908,-0.1963,-0.2094,-0.2129,-0.218,-0.2293,-0.2335,-0.239,-0.246,-0.2468,-0.2543,-0.2529,-0.2571,-0.2555,-0.2535,-0.244,-0.253,-0.2369,-0.235,-0.2269,-0.2247,-0.2214,-0.2237,-0.2539,-0.2539,-0.2538,-0.2538,0,-0.1823,-0.1923,-0.1991,-0.212,-0.2151,-0.2173,-0.2278,-0.2302,-0.2402,-0.2412,-0.2426,-0.25,-0.2465,-0.2483,-0.2474,-0.2435,-0.2329,-0.2333,-0.2224,-0.2188,-0.2009,-0.2038,-0.1994,-0.1937,-0.2202,-0.2198,-0.2194,0,-0.1794,-0.1823,-0.1923,-0.1937,-0.1989,-0.2051,-0.2078,-0.2218,-0.2244,-0.2351,-0.233,-0.2351,-0.2302,-0.2252,-0.2189,-0.2142,-0.2156,-0.2019,-0.1998,-0.1965,-0.199,-0.2019,-0.1979,-0.1917,-0.1912,-0.1907,-0.1904,0,-0.1713,-0.1732,-0.1776,-0.1797,-0.1826,-0.1867,-0.1932,-0.1953,-0.2092,-0.2121,-0.2133,-0.2124,-0.2078,-0.1963,-0.19,-0.1858,-0.1945,-0.1919,-0.1937,-0.1786,-0.1774,-0.1719,-0.1939,-0.1864,-0.1868,-0.1871,-0.1873,-0.1875,-0.1613,-0.1599,-0.1639,-0.1645,-0.1669,-0.1677,-0.1672,-0.1748,-0.1775,-0.1814,-0.1878,-0.1844,-0.1802,-0.1681,-0.1627,-0.1523,-0.1618,-0.1512,-0.1566,-0.161,-0.1491,-0.1589,-0.1441,-0.1442,-0.1443,-0.1445,-0.1446,0,-0.1493,-0.1496,-0.1493,-0.1504,-0.1469,-0.1532,-0.156,-0.1543,-0.1521,-0.1566,-0.1564,-0.1532,-0.1416,-0.1398,-0.1308,-0.124,-0.1251,-0.1222,-0.13,-0.1286,-0.142,-0.1338,-0.1095,-0.1095,-0.1095,-0.1095,-0.1095,-0.1095,-0.1435,-0.1393,-0.1393,-0.1311,-0.1307,-0.1242,-0.1229,-0.121,-0.1226,-0.1193,-0.1208,-0.1261,-0.1269,-0.132,-0.1207,-0.1135,-0.1147,-0.1074,-0.1128,-0.1288,-0.1322,-0.1355,-0.1283,-0.1033,-0.1033,-0.0949,-0.0949,-0.0948]},{"header":{"parameterUnit":"m.s-1","parameterCategory":2,"la1":30.2991,"la2":30.254,"lo1":-89.0895,"lo2":-89.0444,"dy":0.0017,"dx":0.0017,"nx":28,"ny":28,"refTime":"2025-08-23T03:00:00:Z","depth":"0","parameterNumber":3,"parameterNumberName":"V-component_of_CURRENTS"},"data":[0,0,0,0,0,0,0,0,0,0,0,0,0,0,0,0,0,0,0,0,0,0,0,0,0,0,0,0,0,0,0,0,0,0,0,0,0,0,0,0,0,0,0,0,0,0,0,0,0,0,0,0,0,0,0,0,0,0,-0.0098,-0.0097,0,-0.0048,-0.0047,-0.0046,-0.0009,-0.0009,-0.0009,-0.0009,0.0095,0.0097,0.01,0,0,0,0,0,0,0,0,0,0,0,0,0,-0.0119,-0.0119,-0.0098,-0.0097,-0.0097,-0.0048,-0.0047,-0.0046,-0.0009,-0.0009,-0.0009,-0.0009,0.0094,0.0097,0.01,0,0,0,0,0,0,0,0,0,0,0,0,0,-0.0092,-0.0119,-0.0098,-0.0074,-0.0072,-0.0048,-0.0047,-0.0046,-0.0009,-0.0009,-0.0009,-0.0009,0.0093,0.0097,0.0101,0.0121,0,0,0.0113,0.0114,0,0,0,0,0,0,0,0,-0.0094,-0.0091,-0.0078,-0.0076,-0.0073,-0.0036,-0.0016,0.0012,-0.0009,-0.0031,-0.0009,-0.0008,0.0055,0.0062,0.0073,0.0126,0.013,0.0113,0.0115,0.0117,0.0118,0,0,0,0,0,0,0,-0.0096,-0.0093,-0.0076,-0.0078,-0.0075,-0.0051,-0.0047,-0.0011,0.0013,-0.0029,-0.0027,-0.0024,0.0057,0.0069,0.0075,0.0132,0.0113,0.0116,0.0119,0.012,0.0216,0.0216,0,0,0,0,0,0,-0.0108,-0.0095,-0.0078,-0.0075,-0.0085,-0.0052,-0.0047,-0.0047,0.0011,0.0019,-0.0024,-0.0023,0.0062,0.0071,0.0079,0.0096,0.0117,0.0121,0.0123,0.0216,0.0216,0.0216,0,0,0,0,0,0,-0.0109,-0.0107,-0.008,-0.0085,-0.008,-0.0052,-0.0051,-0.0046,-0.0034,0.0014,0.0023,-0.0019,0.0062,0.0074,0.0116,0.01,0.0123,0.0126,0.0215,0.0216,0.0216,0.0135,0,0,0,0,0,0,-0.011,-0.0108,-0.011,-0.0086,-0.008,-0.0068,-0.0052,-0.0045,-0.0033,-0.0031,0.0022,0.0032,0.0063,0.011,0.012,0.0106,0.0129,0.0215,0.0215,0.0216,0.0138,0.0133,0.0129,0,0,0,0,0,-0.0111,-0.0123,-0.0111,-0.0109,-0.0085,-0.0068,-0.0063,-0.004,-0.0034,-0.0029,0.001,0.003,0.0119,0.0113,0.0125,0.0112,0.0215,0.0215,0.0216,0.014,0.0134,0.0129,0,0,0,0,0,0,-0.0135,-0.0119,-0.0106,-0.0112,-0.0091,-0.0063,-0.0062,-0.0044,-0.0011,-0.0009,0.0038,0.005,0.0079,0.0114,0.0106,0.0143,0.0168,0.0171,0.0106,0.0101,0.0097,0.007,0.0132,0,0,0,0,0,-0.0141,-0.0144,-0.012,-0.0123,-0.0118,-0.0089,-0.008,-0.0063,-0.0034,-0.002,0.0018,0.0058,0.009,0.011,0.0147,0.017,0.0192,0.017,0.0165,0.0161,0.0149,0.0153,0.0147,0.0217,0.0217,0.0217,0,0,-0.0151,-0.0143,-0.0144,-0.0128,-0.0113,-0.0115,-0.0083,-0.0074,-0.0074,-0.0013,0.0004,0.0046,0.0094,0.0117,0.0132,0.0143,0.0159,0.0162,0.0157,0.0147,0.0153,0.0146,0.0139,0.0217,0.0217,0.0217,0,0,-0.0177,-0.0166,-0.0179,-0.0167,-0.015,-0.0134,-0.0134,-0.0104,-0.0089,-0.0061,-0.0025,0.0009,0.0065,0.0089,0.0109,0.0105,0.0135,0.0118,0.0071,0.0075,0.0068,0.0063,0.0102,0.0101,0.0114,0.0114,0.0114,0,-0.0189,-0.0204,-0.0178,-0.0188,-0.0191,-0.0149,-0.0166,-0.0144,-0.0101,-0.0094,-0.0065,0.0001,0.0047,0.0058,0.0059,0.009,0.0109,0.0083,0.0065,0.006,0.0056,0.0097,0.0097,0.011,0.0111,0.0111,0.0112,0,-0.0225,-0.0236,-0.0245,-0.0248,-0.0243,-0.025,-0.0224,-0.021,-0.0185,-0.016,-0.0133,-0.0068,-0.0033,-0.0012,0.0024,0.0015,0.0045,0.0056,0.007,0.0043,0.009,0.0091,0.0105,0.0106,0.0107,0.0108,0,0,-0.0257,-0.027,-0.0273,-0.0292,-0.028,-0.0285,-0.0286,-0.0278,-0.0286,-0.0232,-0.0237,-0.0174,-0.0138,-0.0112,-0.0064,-0.0054,-0.0052,-0.0018,-0.0016,0.0005,-0.0023,0.0055,0.0064,-0.0055,-0.0055,-0.0056,0.0029,0,-0.0294,-0.0338,-0.033,-0.0372,-0.0397,-0.0369,-0.0377,-0.0361,-0.0331,-0.0319,-0.0261,-0.0237,-0.0177,-0.0159,-0.0143,-0.0075,-0.0058,-0.0075,0.0014,0.0018,0.0075,0.0064,0.0082,0.0164,0.003,0.003,0.003,0,-0.0336,-0.0363,-0.0414,-0.0449,-0.0458,-0.047,-0.0485,-0.0483,-0.0451,-0.0425,-0.0392,-0.034,-0.0299,-0.0251,-0.0166,-0.0182,-0.0113,-0.006,-0.0055,0.0041,0.0095,0.0167,0.017,0.0293,0.0032,0.0032,0.0032,0,-0.0385,-0.0426,-0.0474,-0.0484,-0.0508,-0.0525,-0.0532,-0.0515,-0.0518,-0.049,-0.0479,-0.0428,-0.0381,-0.0319,-0.0173,-0.0186,-0.0071,-0.0074,0.0063,0.0071,0.0117,0.0131,0.0232,-0.0033,-0.0033,-0.0033,-0.0033,0,-0.0436,-0.0475,-0.05,-0.0527,-0.0585,-0.0577,-0.0618,-0.0611,-0.0597,-0.06,-0.0535,-0.0509,-0.04,-0.0305,-0.0204,-0.0045,-0.0089,0.0054,0.0089,0.0096,0.0106,0.0241,0.0293,-0.003,-0.003,-0.0031,-0.0032,0,-0.048,-0.0495,-0.0554,-0.0592,-0.0608,-0.0646,-0.0673,-0.0694,-0.0668,-0.0668,-0.066,-0.0566,-0.0437,-0.0298,-0.016,-0.0059,0.0153,0.0135,0.0163,0.0199,0.0413,0.0459,0.0607,0.0683,0.0265,0.0267,0.0269,0,-0.0507,-0.0538,-0.0602,-0.064,-0.0659,-0.0705,-0.0735,-0.0731,-0.0741,-0.0691,-0.069,-0.0565,-0.0462,-0.0205,-0.0015,0.018,0.0272,0.032,0.0291,0.0432,0.0509,0.0541,0.0595,0.0332,0.0335,0.0337,0.0338,0,-0.0553,-0.057,-0.0616,-0.0694,-0.0739,-0.0792,-0.0824,-0.0847,-0.0825,-0.0801,-0.0731,-0.0646,-0.0376,-0.0138,0.0144,0.026,0.0414,0.0365,0.0484,0.055,0.0616,0.0704,0.0298,0.0355,0.0353,0.0352,0.0351,0.035,-0.0577,-0.062,-0.0675,-0.0748,-0.0804,-0.0861,-0.0897,-0.0909,-0.0913,-0.0864,-0.0766,-0.0608,-0.0247,0.0145,0.0293,0.0609,0.0573,0.0679,0.0721,0.0739,0.0818,0.0475,0.0588,0.0588,0.0587,0.0587,0.0587,0,-0.0602,-0.0652,-0.0726,-0.081,-0.0873,-0.089,-0.0943,-0.0955,-0.0949,-0.0863,-0.0768,-0.0378,-0.0019,0.0321,0.0764,0.094,0.0965,0.103,0.1057,0.1092,0.0763,0.0772,0.0962,0.0962,0.0962,0.0962,0.0962,0.0962,-0.0618,-0.0688,-0.073,-0.0841,-0.0899,-0.0963,-0.0988,-0.099,-0.0936,-0.0762,-0.0551,-0.0381,0.0131,0.0818,0.1223,0.1263,0.1404,0.1404,0.1489,0.124,0.1209,0.1179,0.12,0.1477,0.1477,0.1792,0.1795,0.1797]}],[{"header":{"parameterUnit":"m.s-1","parameterCategory":2,"la1":30.2991,"la2":30.254,"lo1":-89.0895,"lo2":-89.0444,"dy":0.0017,"dx":0.0017,"nx":28,"ny":28,"refTime":"2025-08-23T03:00:00:Z","depth":"2","parameterNumber":2,"parameterNumberName":"U-component_of_CURRENTS"},"data":[0,0,0,0,0,0,0,0,0,0,0,0,0,0,0,0,0,0,0,0,0,0,0,0,0,0,0,0,0,0,0,0,0,0,0,0,0,0,0,0,0,0,0,0,0,0,0,0,0,0,0,0,0,0,0,0,0,0,-0.1784,-0.1784,0,-0.1828,-0.1829,-0.1829,-0.1789,-0.1787,-0.1786,-0.1784,-0.1816,-0.1818,-0.182,0,0,0,0,0,0,0,0,0,0,0,0,0,-0.1705,-0.1706,-0.1783,-0.1784,-0.1785,-0.1828,-0.1829,-0.1829,-0.1789,-0.1787,-0.1785,-0.1784,-0.1815,-0.1817,-0.182,0,0,0,0,0,0,0,0,0,0,0,0,0,-0.1741,-0.1707,-0.1783,-0.1772,-0.1772,-0.1828,-0.1829,-0.1829,-0.1789,-0.1787,-0.1785,-0.1783,-0.1814,-0.1817,-0.182,-0.1883,0,0,-0.183,-0.1832,0,0,0,0,0,0,0,0,-0.1739,-0.1744,-0.1773,-0.1773,-0.1773,-0.1803,-0.1813,-0.1847,-0.179,-0.178,-0.1784,-0.1782,-0.1813,-0.1816,-0.1826,-0.1885,-0.1886,-0.1831,-0.1833,-0.1834,-0.1835,0,0,0,0,0,0,0,-0.1737,-0.1742,-0.1799,-0.1774,-0.1774,-0.1779,-0.1781,-0.1819,-0.1806,-0.1781,-0.1778,-0.1788,-0.1812,-0.1823,-0.1827,-0.1886,-0.1831,-0.1833,-0.1835,-0.1837,-0.2058,-0.2062,0,0,0,0,0,0,-0.1736,-0.174,-0.1797,-0.18,-0.1753,-0.1782,-0.1785,-0.1793,-0.1806,-0.1806,-0.179,-0.1786,-0.1819,-0.1823,-0.1828,-0.1881,-0.1834,-0.1837,-0.1839,-0.2054,-0.2059,-0.2063,0,0,0,0,0,0,-0.1735,-0.1741,-0.1796,-0.1773,-0.178,-0.1786,-0.1796,-0.1795,-0.1801,-0.1813,-0.1812,-0.1795,-0.1817,-0.1823,-0.1893,-0.1883,-0.1838,-0.1841,-0.2049,-0.2055,-0.2061,-0.2002,0,0,0,0,0,0,-0.1732,-0.174,-0.1745,-0.1773,-0.1781,-0.1821,-0.1798,-0.1798,-0.1811,-0.1807,-0.1819,-0.1819,-0.1816,-0.1889,-0.1897,-0.1886,-0.1844,-0.2044,-0.2052,-0.2059,-0.1999,-0.2005,-0.2011,0,0,0,0,0,-0.1729,-0.1748,-0.1745,-0.1752,-0.1788,-0.1822,-0.1827,-0.1822,-0.1814,-0.1819,-0.1857,-0.1818,-0.1941,-0.1896,-0.1903,-0.1893,-0.2041,-0.205,-0.2058,-0.1996,-0.2004,-0.201,0,0,0,0,0,0,-0.1717,-0.1747,-0.1744,-0.177,-0.179,-0.1816,-0.1829,-0.1831,-0.1865,-0.1866,-0.1872,-0.1878,-0.1931,-0.1957,-0.1906,-0.1994,-0.1984,-0.1995,-0.1934,-0.1942,-0.1947,-0.1934,-0.1847,0,0,0,0,0,-0.1719,-0.1737,-0.1765,-0.1784,-0.1797,-0.1816,-0.183,-0.183,-0.1866,-0.1875,-0.1894,-0.1937,-0.198,-0.1994,-0.204,-0.209,-0.2093,-0.2099,-0.2105,-0.2108,-0.2114,-0.2134,-0.2139,-0.2092,-0.2092,-0.2092,0,0,-0.1721,-0.1739,-0.1749,-0.1782,-0.1799,-0.1821,-0.1817,-0.1844,-0.1858,-0.1879,-0.1918,-0.1957,-0.2007,-0.2056,-0.2081,-0.2066,-0.2126,-0.212,-0.2121,-0.2125,-0.2143,-0.2147,-0.215,-0.2098,-0.2097,-0.2096,0,0,-0.1734,-0.175,-0.1767,-0.1785,-0.1815,-0.1832,-0.1841,-0.1876,-0.1882,-0.1944,-0.196,-0.2008,-0.2079,-0.2096,-0.2118,-0.22,-0.2161,-0.2218,-0.2213,-0.2232,-0.2233,-0.2235,-0.2222,-0.2223,-0.221,-0.221,-0.221,0,-0.1732,-0.1755,-0.1778,-0.1798,-0.1814,-0.1836,-0.1857,-0.1878,-0.193,-0.1952,-0.1954,-0.2074,-0.2093,-0.2147,-0.2168,-0.2199,-0.2203,-0.2158,-0.2229,-0.2231,-0.2233,-0.222,-0.2221,-0.2208,-0.2208,-0.2208,-0.2208,0,-0.1754,-0.1771,-0.1788,-0.1815,-0.1837,-0.1863,-0.1893,-0.1928,-0.1951,-0.1968,-0.2038,-0.209,-0.2154,-0.2165,-0.2183,-0.222,-0.2214,-0.2226,-0.2181,-0.2232,-0.2218,-0.222,-0.2205,-0.2206,-0.2206,-0.2207,0,0,-0.1747,-0.1794,-0.1795,-0.1811,-0.1847,-0.1873,-0.1912,-0.1954,-0.1987,-0.2029,-0.2075,-0.2136,-0.2156,-0.219,-0.2213,-0.2223,-0.2221,-0.2227,-0.2229,-0.2163,-0.224,-0.2128,-0.212,-0.2235,-0.2236,-0.2237,-0.2212,0,-0.1753,-0.1791,-0.1812,-0.1846,-0.187,-0.1906,-0.1944,-0.1983,-0.2022,-0.2076,-0.2112,-0.2168,-0.2164,-0.2199,-0.2207,-0.2249,-0.2231,-0.2226,-0.2249,-0.225,-0.21,-0.2121,-0.1972,-0.1929,-0.2214,-0.2214,-0.2214,0,-0.1757,-0.1784,-0.1818,-0.1871,-0.1886,-0.1911,-0.1982,-0.2014,-0.2081,-0.2118,-0.2165,-0.2199,-0.2244,-0.2231,-0.2268,-0.2267,-0.2244,-0.2249,-0.2248,-0.2166,-0.2143,-0.1939,-0.1923,-0.2218,-0.2218,-0.2218,-0.2217,0,-0.1735,-0.1786,-0.1814,-0.1828,-0.1894,-0.1923,-0.1958,-0.2023,-0.2057,-0.2136,-0.2177,-0.2235,-0.2269,-0.2282,-0.2272,-0.2283,-0.2288,-0.2306,-0.217,-0.2161,-0.2052,-0.2032,-0.2293,-0.2293,-0.2293,-0.2293,-0.2293,0,-0.1727,-0.1746,-0.1808,-0.1821,-0.1863,-0.1911,-0.1961,-0.2013,-0.2085,-0.2112,-0.2183,-0.2213,-0.2283,-0.2289,-0.2282,-0.222,-0.2287,-0.2164,-0.2149,-0.2029,-0.2008,-0.2287,-0.2287,-0.2292,-0.2293,-0.2293,-0.2293,0,-0.168,-0.1727,-0.1756,-0.1825,-0.1849,-0.187,-0.1941,-0.1972,-0.2056,-0.2099,-0.2124,-0.2205,-0.2213,-0.2236,-0.2251,-0.2209,-0.2183,-0.2123,-0.1957,-0.1922,-0.2043,-0.2042,-0.2007,-0.2003,-0.2,-0.1997,-0.1994,0,-0.1655,-0.1667,-0.1732,-0.1742,-0.1766,-0.1813,-0.1839,-0.1938,-0.1963,-0.2067,-0.2072,-0.2115,-0.2101,-0.2083,-0.2035,-0.1984,-0.2054,-0.1799,-0.1791,-0.2026,-0.2016,-0.202,-0.2022,-0.1625,-0.162,-0.1616,-0.1612,0,-0.159,-0.1614,-0.1634,-0.1657,-0.1682,-0.1715,-0.1759,-0.1786,-0.1885,-0.1925,-0.195,-0.1956,-0.1937,-0.1825,-0.1755,-0.1709,-0.1812,-0.1707,-0.2006,-0.1713,-0.1662,-0.1653,-0.1669,-0.1574,-0.1578,-0.1581,-0.1583,-0.1584,-0.1523,-0.1516,-0.1541,-0.155,-0.1576,-0.1584,-0.1576,-0.163,-0.1655,-0.1683,-0.1759,-0.1719,-0.172,-0.1548,-0.1458,-0.14,-0.1534,-0.148,-0.1496,-0.1516,-0.1468,-0.1413,-0.1268,-0.127,-0.1272,-0.1273,-0.1274,0,-0.1425,-0.1426,-0.1427,-0.1436,-0.141,-0.1467,-0.1488,-0.1461,-0.1437,-0.1485,-0.1484,-0.1344,-0.1256,-0.1264,-0.1113,-0.1076,-0.1093,-0.103,-0.1065,-0.1102,-0.1136,-0.1072,-0.0766,-0.0764,-0.0763,-0.0761,0,0,-0.1374,-0.1336,-0.1335,-0.1263,-0.1263,-0.1203,-0.1189,-0.1166,-0.1174,-0.1129,-0.1114,-0.1208,-0.1236,-0.1011,-0.0946,-0.0834,-0.0964,-0.0788,-0.1197,-0.1277,-0.1309,-0.1393,-0.1335,0,0,0,0,0]},{"header":{"parameterUnit":"m.s-1","parameterCategory":2,"la1":30.2991,"la2":30.254,"lo1":-89.0895,"lo2":-89.0444,"dy":0.0017,"dx":0.0017,"nx":28,"ny":28,"refTime":"2025-08-23T03:00:00:Z","depth":"2","parameterNumber":3,"parameterNumberName":"V-component_of_CURRENTS"},"data":[0,0,0,0,0,0,0,0,0,0,0,0,0,0,0,0,0,0,0,0,0,0,0,0,0,0,0,0,0,0,0,0,0,0,0,0,0,0,0,0,0,0,0,0,0,0,0,0,0,0,0,0,0,0,0,0,0,0,-0.0067,-0.0066,0,-0.0043,-0.0042,-0.0042,-0.0005,-0.0004,-0.0003,-0.0003,0.0066,0.0067,0.0068,0,0,0,0,0,0,0,0,0,0,0,0,0,-0.0078,-0.0078,-0.0067,-0.0066,-0.0066,-0.0043,-0.0042,-0.0042,-0.0005,-0.0004,-0.0003,-0.0003,0.0065,0.0067,0.0068,0,0,0,0,0,0,0,0,0,0,0,0,0,-0.0065,-0.0078,-0.0067,-0.0045,-0.0043,-0.0043,-0.0042,-0.0042,-0.0005,-0.0004,-0.0003,-0.0002,0.0065,0.0067,0.0068,0.006,0,0,0.0074,0.0075,0,0,0,0,0,0,0,0,-0.0066,-0.0065,-0.0048,-0.0046,-0.0044,-0.0026,-0.0021,-0.0006,-0.0005,-0.0019,-0.0003,-0.0002,0.0038,0.0042,0.0044,0.0063,0.0066,0.0074,0.0075,0.0076,0.0076,0,0,0,0,0,0,0,-0.0067,-0.0066,-0.0057,-0.0048,-0.0045,-0.0035,-0.0032,-0.0018,0.0005,-0.0018,-0.0015,-0.0013,0.004,0.0042,0.0046,0.0067,0.0074,0.0076,0.0077,0.0077,0.0177,0.0179,0,0,0,0,0,0,-0.0071,-0.0067,-0.0058,-0.0056,-0.0053,-0.0036,-0.0033,-0.0033,0.0004,0.001,-0.0014,-0.0011,0.0039,0.0044,0.0049,0.0069,0.0076,0.0078,0.0079,0.0176,0.0178,0.0179,0,0,0,0,0,0,-0.0072,-0.0071,-0.0059,-0.0061,-0.0059,-0.0037,-0.0037,-0.0033,-0.0025,0.0006,0.0013,-0.001,0.004,0.0046,0.0079,0.0071,0.0078,0.008,0.0174,0.0176,0.0178,0.0092,0,0,0,0,0,0,-0.0072,-0.0071,-0.0074,-0.0061,-0.0059,-0.0066,-0.0038,-0.0033,-0.0026,-0.0022,0.0011,0.0018,0.0041,0.0077,0.0081,0.0074,0.0081,0.0172,0.0175,0.0178,0.0093,0.0091,0.009,0,0,0,0,0,-0.0073,-0.0086,-0.0074,-0.0073,-0.0062,-0.0067,-0.0065,-0.0046,-0.0027,-0.0033,0.0009,0.0018,0.0099,0.0078,0.0084,0.0077,0.017,0.0174,0.0177,0.0094,0.0091,0.009,0,0,0,0,0,0,-0.0094,-0.0083,-0.007,-0.0078,-0.0074,-0.0061,-0.0065,-0.0049,-0.0024,-0.0014,0.0024,0.0033,0.0062,0.0093,0.0069,0.0124,0.0142,0.0146,0.0077,0.0075,0.0073,0.0062,0.0083,0,0,0,0,0,-0.0099,-0.0104,-0.0092,-0.0099,-0.0099,-0.0081,-0.0079,-0.0067,-0.0043,-0.0032,-0.0006,0.004,0.0079,0.0095,0.0129,0.0145,0.0175,0.0155,0.0154,0.0151,0.0152,0.0193,0.0193,0.0191,0.0191,0.0191,0,0,-0.0108,-0.0103,-0.0105,-0.0104,-0.0097,-0.0105,-0.0077,-0.008,-0.0077,-0.0028,-0.0014,0.0027,0.0085,0.011,0.0126,0.0132,0.0169,0.0156,0.0153,0.0155,0.0196,0.0196,0.0196,0.0193,0.0193,0.0192,0,0,-0.0138,-0.0126,-0.0142,-0.0142,-0.0137,-0.0125,-0.0127,-0.0114,-0.0099,-0.008,-0.0032,0.0009,0.0053,0.0093,0.0122,0.0137,0.0159,0.0153,0.0125,0.0164,0.0163,0.0163,0.0189,0.0192,0.015,0.015,0.015,0,-0.0148,-0.0164,-0.0148,-0.0165,-0.0166,-0.0136,-0.0154,-0.0137,-0.0112,-0.0097,-0.008,0.0009,0.0048,0.0094,0.0104,0.0127,0.0151,0.0114,0.0156,0.0157,0.0158,0.0185,0.0189,0.0146,0.0147,0.0147,0.0148,0,-0.019,-0.02,-0.0212,-0.0217,-0.0217,-0.0229,-0.0206,-0.0198,-0.017,-0.0145,-0.0098,-0.0038,0.0017,0.0038,0.0072,0.0107,0.012,0.0142,0.0145,0.0152,0.0181,0.0187,0.0141,0.0142,0.0144,0.0144,0,0,-0.022,-0.0237,-0.0241,-0.0254,-0.0245,-0.0255,-0.0245,-0.023,-0.0221,-0.0178,-0.0157,-0.0083,-0.0047,-0.0007,0.0041,0.0077,0.0099,0.0106,0.011,0.0102,0.0172,0.0189,0.0197,0.0118,0.0119,0.012,0.0183,0,-0.0256,-0.0301,-0.0293,-0.0327,-0.0347,-0.0317,-0.0315,-0.0292,-0.0257,-0.0228,-0.015,-0.011,-0.0064,-0.0041,0.0004,0.0083,0.0113,0.008,0.0194,0.0197,0.0186,0.0204,0.0194,0.025,0.0189,0.019,0.0191,0,-0.03,-0.0324,-0.0367,-0.0386,-0.0392,-0.0401,-0.0389,-0.0382,-0.0325,-0.0297,-0.0236,-0.0176,-0.0102,-0.0067,0.0055,0.0028,0.0093,0.0149,0.0153,0.0204,0.0225,0.0241,0.0263,0.0201,0.02,0.0199,0.0198,0,-0.034,-0.0375,-0.0411,-0.0419,-0.0432,-0.0439,-0.0437,-0.0401,-0.0398,-0.0334,-0.0321,-0.0221,-0.0175,-0.0073,0.0049,0.005,0.0178,0.0196,0.0269,0.0271,0.0305,0.0308,0.0273,0.0272,0.0272,0.0272,0.0272,0,-0.0385,-0.0415,-0.0434,-0.0457,-0.0498,-0.0484,-0.0506,-0.0489,-0.0457,-0.0452,-0.036,-0.033,-0.0176,-0.0081,0.0033,0.017,0.0167,0.0269,0.0293,0.0276,0.0276,0.0273,0.0272,0.0274,0.0274,0.0273,0.0273,0,-0.0426,-0.0438,-0.0486,-0.051,-0.0522,-0.0549,-0.0567,-0.0579,-0.0543,-0.0531,-0.0515,-0.041,-0.028,-0.0128,0.0042,0.0138,0.0274,0.0317,0.0282,0.0301,0.0342,0.0337,0.041,0.0412,0.0413,0.0414,0.0414,0,-0.0453,-0.048,-0.0532,-0.0566,-0.058,-0.0615,-0.064,-0.0624,-0.063,-0.0578,-0.0574,-0.0455,-0.0354,-0.0103,0.0091,0.0291,0.0295,0.0383,0.0392,0.0343,0.0359,0.0352,0.0345,0.0401,0.0402,0.0402,0.0402,0,-0.0497,-0.0513,-0.0551,-0.0624,-0.0664,-0.071,-0.0736,-0.0758,-0.0729,-0.0702,-0.064,-0.0553,-0.0313,-0.0084,0.0166,0.0284,0.0355,0.0398,0.0369,0.0364,0.0339,0.0353,0.0346,0.0406,0.0406,0.0406,0.0406,0.0405,-0.0523,-0.0563,-0.0614,-0.0679,-0.0731,-0.0785,-0.0817,-0.0826,-0.0827,-0.077,-0.0686,-0.0524,-0.0316,0.0057,0.0232,0.0402,0.0403,0.0458,0.0455,0.0452,0.0436,0.0414,0.0491,0.0492,0.0492,0.0492,0.0492,0,-0.055,-0.0596,-0.0666,-0.0743,-0.0804,-0.0819,-0.0867,-0.0874,-0.0865,-0.077,-0.0674,-0.0429,-0.0167,0.0055,0.0329,0.048,0.0472,0.0504,0.0468,0.0464,0.046,0.0443,0.0501,0.0502,0.0502,0.0502,0,0,-0.0566,-0.0633,-0.0671,-0.0778,-0.0833,-0.0894,-0.0917,-0.0911,-0.0845,-0.0753,-0.0613,-0.0426,-0.0147,0.0043,0.0237,0.0381,0.038,0.0393,0.0373,0.0304,0.0299,0.0425,0.0394,0,0,0,0,0]}],[{"header":{"parameterUnit":"m.s-1","parameterCategory":2,"la1":30.2991,"la2":30.254,"lo1":-89.0895,"lo2":-89.0444,"dy":0.0017,"dx":0.0017,"nx":28,"ny":28,"refTime":"2025-08-23T03:00:00:Z","depth":"4","parameterNumber":2,"parameterNumberName":"U-component_of_CURRENTS"},"data":[0,0,0,0,0,0,0,0,0,0,0,0,0,0,0,0,0,0,0,0,0,0,0,0,0,0,0,0,0,0,0,0,0,0,0,0,0,0,0,0,0,0,0,0,0,0,0,0,0,0,0,0,0,0,0,0,0,0,-0.1276,-0.1276,0,-0.1302,-0.1302,-0.1302,-0.1319,-0.1319,-0.132,-0.132,-0.1337,-0.1337,-0.1337,0,0,0,0,0,0,0,0,0,0,0,0,0,-0.1207,-0.1208,-0.1276,-0.1276,-0.1277,-0.1302,-0.1302,-0.1302,-0.1319,-0.1319,-0.132,-0.132,-0.1337,-0.1337,-0.1337,0,0,0,0,0,0,0,0,0,0,0,0,0,-0.1232,-0.1208,-0.1276,-0.129,-0.1292,-0.1302,-0.1302,-0.1302,-0.1319,-0.1319,-0.132,-0.132,-0.1337,-0.1337,-0.1337,-0.1326,0,0,-0.1337,-0.1337,0,0,0,0,0,0,0,0,-0.1231,-0.1235,-0.1288,-0.129,-0.1292,-0.131,-0.1284,-0.1311,-0.1319,-0.1305,-0.132,-0.1321,-0.1329,-0.1329,-0.1329,-0.1327,-0.1328,-0.1337,-0.1337,-0.1337,-0.1337,0,0,0,0,0,0,0,-0.1229,-0.1233,-0.1283,-0.1288,-0.1291,-0.1285,-0.1289,-0.1289,-0.1311,-0.1307,-0.1309,-0.1316,-0.1329,-0.1329,-0.1329,-0.1328,-0.1337,-0.1337,-0.1337,-0.1338,-0.1358,-0.1359,0,0,0,0,0,0,-0.1234,-0.1232,-0.1282,-0.1284,-0.1266,-0.1286,-0.129,-0.1301,-0.1311,-0.1314,-0.1316,-0.1317,-0.1328,-0.1329,-0.133,-0.1365,-0.1337,-0.1338,-0.1338,-0.1358,-0.1358,-0.1359,0,0,0,0,0,0,-0.1232,-0.1238,-0.1281,-0.1261,-0.1266,-0.1287,-0.1299,-0.1302,-0.1323,-0.1319,-0.1321,-0.1337,-0.1329,-0.133,-0.134,-0.1364,-0.1338,-0.1338,-0.1357,-0.1358,-0.1358,-0.1404,0,0,0,0,0,0,-0.123,-0.1237,-0.1253,-0.1261,-0.1268,-0.1293,-0.1299,-0.1302,-0.1327,-0.1329,-0.1337,-0.1338,-0.1329,-0.134,-0.134,-0.1363,-0.1338,-0.1356,-0.1357,-0.1358,-0.1402,-0.1406,-0.141,0,0,0,0,0,-0.1227,-0.1246,-0.1254,-0.1261,-0.1287,-0.1294,-0.1296,-0.131,-0.1327,-0.1332,-0.134,-0.1339,-0.1346,-0.134,-0.1341,-0.1364,-0.1356,-0.1357,-0.1358,-0.14,-0.1405,-0.141,0,0,0,0,0,0,-0.1226,-0.125,-0.1259,-0.1285,-0.1292,-0.1298,-0.1313,-0.1323,-0.1334,-0.1344,-0.1342,-0.1342,-0.136,-0.1353,-0.1347,-0.1371,-0.1352,-0.1353,-0.1384,-0.1389,-0.1393,-0.1393,-0.1338,0,0,0,0,0,-0.1233,-0.1255,-0.1267,-0.1289,-0.1297,-0.1309,-0.1319,-0.1327,-0.1336,-0.1343,-0.1349,-0.1356,-0.136,-0.1368,-0.1365,-0.138,-0.1375,-0.1395,-0.1399,-0.1402,-0.1402,-0.1419,-0.1425,-0.1362,-0.1362,-0.1362,0,0,-0.1241,-0.1257,-0.1271,-0.1291,-0.1302,-0.1308,-0.1317,-0.1336,-0.1349,-0.1342,-0.1367,-0.1369,-0.1365,-0.1379,-0.1387,-0.1381,-0.1417,-0.1404,-0.1407,-0.1405,-0.1421,-0.1427,-0.1433,-0.1363,-0.1363,-0.1363,0,0,-0.125,-0.1281,-0.1292,-0.1298,-0.1317,-0.1325,-0.1335,-0.135,-0.1367,-0.1382,-0.1385,-0.14,-0.1406,-0.141,-0.1412,-0.1436,-0.1434,-0.1442,-0.1469,-0.1486,-0.1492,-0.1496,-0.1497,-0.1501,-0.1449,-0.1449,-0.1449,0,-0.1259,-0.1275,-0.1295,-0.1299,-0.1314,-0.1335,-0.1343,-0.1358,-0.1375,-0.1396,-0.1395,-0.1422,-0.142,-0.1445,-0.1451,-0.1447,-0.1451,-0.1454,-0.1493,-0.1497,-0.1501,-0.15,-0.1505,-0.1451,-0.1451,-0.1451,-0.1451,0,-0.126,-0.1279,-0.1288,-0.1304,-0.1319,-0.1334,-0.1355,-0.138,-0.1408,-0.1423,-0.146,-0.1458,-0.1475,-0.1481,-0.1473,-0.1508,-0.1499,-0.1494,-0.1483,-0.1511,-0.1508,-0.1511,-0.1455,-0.1454,-0.1453,-0.1453,0,0,-0.1261,-0.1286,-0.129,-0.1303,-0.1327,-0.1341,-0.1373,-0.1408,-0.1445,-0.1463,-0.1506,-0.1514,-0.1527,-0.1529,-0.1532,-0.1547,-0.1576,-0.1538,-0.1537,-0.1542,-0.1608,-0.1508,-0.1503,-0.1586,-0.1587,-0.1587,-0.1594,0,-0.1256,-0.1271,-0.1287,-0.1311,-0.1322,-0.1357,-0.1388,-0.1426,-0.1462,-0.1506,-0.1528,-0.1559,-0.1543,-0.1562,-0.1575,-0.1577,-0.1589,-0.1574,-0.1577,-0.1576,-0.1488,-0.1504,-0.159,-0.1597,-0.1598,-0.1598,-0.1599,0,-0.1243,-0.126,-0.1284,-0.1327,-0.1339,-0.1363,-0.1435,-0.1461,-0.1523,-0.1553,-0.159,-0.1606,-0.1634,-0.1616,-0.1634,-0.1629,-0.1621,-0.1617,-0.1618,-0.1509,-0.1483,-0.1563,-0.1605,-0.1605,-0.1604,-0.1604,-0.1603,0,-0.1227,-0.1258,-0.1288,-0.1299,-0.1348,-0.1384,-0.1421,-0.1483,-0.1522,-0.1588,-0.1623,-0.1654,-0.1681,-0.1678,-0.1669,-0.1658,-0.1686,-0.1667,-0.1568,-0.156,-0.163,-0.1625,-0.1678,-0.1678,-0.1678,-0.1678,-0.1678,0,-0.1205,-0.1227,-0.1291,-0.1303,-0.1356,-0.1391,-0.1458,-0.1497,-0.1564,-0.1601,-0.1649,-0.1674,-0.1701,-0.1718,-0.1693,-0.1639,-0.1704,-0.1568,-0.1556,-0.1648,-0.1644,-0.1632,-0.1627,-0.1678,-0.1678,-0.1678,-0.1678,0,-0.1164,-0.1207,-0.1245,-0.1316,-0.1347,-0.1386,-0.1473,-0.1505,-0.1579,-0.1629,-0.1651,-0.1709,-0.1711,-0.1726,-0.1726,-0.1662,-0.1625,-0.1594,-0.1694,-0.1688,-0.148,-0.1477,-0.1463,-0.146,-0.1457,-0.1455,-0.1453,0,-0.1136,-0.1153,-0.1249,-0.1277,-0.1312,-0.1381,-0.1417,-0.1503,-0.1527,-0.1627,-0.163,-0.1684,-0.1702,-0.1621,-0.1644,-0.1593,-0.1572,-0.1544,-0.1497,-0.1468,-0.1458,-0.146,-0.1461,-0.1448,-0.1447,-0.1446,-0.1446,0,-0.1074,-0.1128,-0.1162,-0.1223,-0.1274,-0.1324,-0.1379,-0.1396,-0.1477,-0.1574,-0.1563,-0.1556,-0.1565,-0.1543,-0.153,-0.149,-0.1552,-0.1513,-0.1518,-0.1473,-0.1449,-0.1443,-0.1447,-0.1435,-0.1437,-0.1438,-0.1438,0,-0.1032,-0.1046,-0.11,-0.1141,-0.1202,-0.1216,-0.1275,-0.1291,-0.1336,-0.1439,-0.1435,-0.1484,-0.1552,-0.1491,-0.1473,-0.1432,-0.139,-0.1327,-0.1341,-0.1353,-0.1311,-0.1264,-0.1179,0,0,0,0,0,-0.0971,-0.097,-0.1001,-0.1042,-0.1096,-0.1128,-0.1211,-0.1266,-0.1365,-0.1317,-0.1369,-0.1363,-0.1335,-0.1365,-0.1292,-0.1408,-0.1393,-0.1317,-0.1328,-0.1379,-0.1391,-0.135,0,0,0,0,0,0,-0.093,-0.0955,-0.0963,-0.0937,-0.094,-0.0987,-0.1034,-0.1109,-0.1091,-0.1197,-0.1189,-0.127,-0.1264,-0.135,-0.126,-0.1267,-0.1242,-0.1356,-0.1352,-0.1372,-0.1383,-0.1392,-0.1355,0,0,0,0,0]},{"header":{"parameterUnit":"m.s-1","parameterCategory":2,"la1":30.2991,"la2":30.254,"lo1":-89.0895,"lo2":-89.0444,"dy":0.0017,"dx":0.0017,"nx":28,"ny":28,"refTime":"2025-08-23T03:00:00:Z","depth":"4","parameterNumber":3,"parameterNumberName":"V-component_of_CURRENTS"},"data":[0,0,0,0,0,0,0,0,0,0,0,0,0,0,0,0,0,0,0,0,0,0,0,0,0,0,0,0,0,0,0,0,0,0,0,0,0,0,0,0,0,0,0,0,0,0,0,0,0,0,0,0,0,0,0,0,0,0,-0.0063,-0.0063,0,-0.0061,-0.0061,-0.0061,-0.003,-0.0029,-0.0029,-0.0028,-0.0012,-0.0012,-0.0012,0,0,0,0,0,0,0,0,0,0,0,0,0,-0.0062,-0.0062,-0.0063,-0.0063,-0.0063,-0.0061,-0.0061,-0.0061,-0.003,-0.0029,-0.0028,-0.0027,-0.0012,-0.0012,-0.0012,0,0,0,0,0,0,0,0,0,0,0,0,0,-0.0061,-0.0062,-0.0063,-0.0048,-0.0046,-0.0061,-0.0061,-0.0061,-0.0031,-0.0029,-0.0028,-0.0027,-0.0012,-0.0012,-0.0013,-0.0039,0,0,-0.0014,-0.0014,0,0,0,0,0,0,0,0,-0.0061,-0.0061,-0.005,-0.0049,-0.0047,-0.0044,-0.0054,-0.0053,-0.0031,-0.0037,-0.0028,-0.0026,-0.0022,-0.0022,-0.0024,-0.0038,-0.0038,-0.0014,-0.0014,-0.0014,-0.0015,0,0,0,0,0,0,0,-0.0061,-0.0062,-0.0063,-0.005,-0.0048,-0.0047,-0.0046,-0.0054,-0.0036,-0.0036,-0.0034,-0.0033,-0.0021,-0.0024,-0.0024,-0.0038,-0.0014,-0.0014,-0.0015,-0.0015,-0.0051,-0.0052,0,0,0,0,0,0,-0.0061,-0.0062,-0.0063,-0.0062,-0.0051,-0.0048,-0.0046,-0.0047,-0.0036,-0.0034,-0.0034,-0.0032,-0.0024,-0.0023,-0.0023,-0.0029,-0.0014,-0.0015,-0.0015,-0.0051,-0.0051,-0.0052,0,0,0,0,0,0,-0.0062,-0.0062,-0.0063,-0.0062,-0.0061,-0.0049,-0.005,-0.0047,-0.0044,-0.0035,-0.0032,-0.0033,-0.0023,-0.0022,-0.0032,-0.0029,-0.0015,-0.0016,-0.005,-0.0051,-0.0052,-0.0056,0,0,0,0,0,0,-0.0062,-0.0062,-0.0064,-0.0062,-0.0062,-0.0077,-0.0051,-0.0048,-0.0046,-0.0042,-0.0033,-0.0031,-0.0022,-0.0031,-0.0032,-0.0029,-0.0016,-0.0049,-0.005,-0.0052,-0.0055,-0.0058,-0.0059,0,0,0,0,0,-0.0062,-0.0073,-0.0064,-0.0064,-0.0064,-0.0078,-0.0079,-0.0066,-0.0047,-0.0056,-0.0046,-0.0031,-0.004,-0.0033,-0.0034,-0.003,-0.0048,-0.005,-0.0051,-0.0055,-0.0057,-0.0059,0,0,0,0,0,0,-0.0075,-0.0071,-0.0061,-0.007,-0.0075,-0.0073,-0.008,-0.0069,-0.0069,-0.0062,-0.0046,-0.0044,-0.005,-0.0047,-0.004,-0.0046,-0.004,-0.0041,-0.0042,-0.0044,-0.0046,-0.0041,-0.0016,0,0,0,0,0,-0.0079,-0.0084,-0.0082,-0.0091,-0.0093,-0.0086,-0.0088,-0.0081,-0.008,-0.0077,-0.0071,-0.0064,-0.006,-0.0057,-0.0061,-0.007,-0.0045,-0.0068,-0.007,-0.0071,-0.0069,-0.0023,-0.0019,-0.0057,-0.0057,-0.0057,0,0,-0.0086,-0.0085,-0.0087,-0.0094,-0.0094,-0.0106,-0.0085,-0.0094,-0.0096,-0.0078,-0.0083,-0.0076,-0.0066,-0.0071,-0.0073,-0.0066,-0.0051,-0.0073,-0.0074,-0.0072,-0.0024,-0.002,-0.0016,-0.0058,-0.0058,-0.0058,0,0,-0.0111,-0.0103,-0.0118,-0.0124,-0.0129,-0.0124,-0.0126,-0.0128,-0.0119,-0.0131,-0.0109,-0.0098,-0.0108,-0.0088,-0.008,-0.0098,-0.0066,-0.0103,-0.0102,-0.0057,-0.0053,-0.0049,-0.002,-0.0014,-0.0099,-0.0099,-0.0099,0,-0.0119,-0.0135,-0.0127,-0.0145,-0.015,-0.0132,-0.015,-0.0145,-0.0147,-0.014,-0.0136,-0.0119,-0.011,-0.009,-0.0094,-0.0098,-0.0075,-0.009,-0.0057,-0.0052,-0.0048,-0.002,-0.0012,-0.0099,-0.0099,-0.0099,-0.0099,0,-0.0156,-0.0168,-0.018,-0.0189,-0.0196,-0.021,-0.02,-0.0201,-0.0187,-0.0174,-0.016,-0.0143,-0.0127,-0.0121,-0.0113,-0.008,-0.0075,-0.0065,-0.0045,-0.0044,-0.0015,-0.0007,-0.01,-0.0099,-0.0099,-0.0099,0,0,-0.0177,-0.02,-0.0205,-0.0216,-0.0218,-0.0231,-0.023,-0.0224,-0.0218,-0.0203,-0.0188,-0.0167,-0.0143,-0.0133,-0.0111,-0.0071,-0.0022,-0.0057,-0.0055,-0.0019,0.0069,0.0054,0.0061,-0.0,0.0001,0.0002,0.0075,0,-0.0208,-0.0249,-0.0248,-0.0281,-0.0299,-0.0281,-0.0285,-0.0273,-0.0253,-0.0237,-0.0188,-0.0174,-0.015,-0.014,-0.0093,-0.0044,-0.0,-0.0043,0.0054,0.0056,0.0052,0.007,0.0007,0.0082,0.0083,0.0085,0.0086,0,-0.0244,-0.0265,-0.0305,-0.0324,-0.033,-0.0343,-0.0336,-0.0337,-0.0298,-0.0282,-0.0238,-0.0203,-0.0143,-0.0125,-0.0017,-0.0046,0.001,0.0054,0.0058,0.0052,0.0056,0.0081,0.0101,0.0099,0.0098,0.0097,0.0096,0,-0.0268,-0.0304,-0.0335,-0.0344,-0.0362,-0.0371,-0.0374,-0.035,-0.0353,-0.0303,-0.0296,-0.0213,-0.0182,-0.0089,-0.0003,-0.0005,0.0114,0.0126,0.0167,0.0166,0.0161,0.0156,0.021,0.0209,0.0209,0.0209,0.0209,0,-0.0298,-0.0325,-0.0351,-0.0371,-0.0407,-0.0402,-0.0425,-0.0414,-0.0393,-0.0393,-0.0321,-0.03,-0.0171,-0.0092,-0.0002,0.0102,0.012,0.0172,0.019,0.0154,0.0147,0.0167,0.0161,0.0212,0.0211,0.0211,0.021,0,-0.0322,-0.034,-0.0382,-0.0411,-0.0424,-0.0449,-0.0476,-0.0487,-0.0462,-0.0457,-0.0444,-0.0359,-0.0249,-0.0125,0.0023,0.0089,0.0198,0.0229,0.0171,0.0182,0.022,0.0212,0.0293,0.0293,0.0293,0.0293,0.0293,0,-0.0338,-0.0362,-0.0417,-0.0451,-0.0469,-0.0505,-0.0531,-0.0525,-0.0532,-0.0495,-0.0493,-0.0393,-0.0321,-0.0121,0.0007,0.0187,0.0207,0.0257,0.0254,0.0222,0.0231,0.0224,0.0216,0.0293,0.0294,0.0294,0.0294,0,-0.0363,-0.0385,-0.042,-0.0491,-0.0534,-0.0579,-0.0609,-0.0622,-0.0605,-0.0587,-0.052,-0.041,-0.0289,-0.0125,0.001,0.0135,0.0225,0.0259,0.026,0.0258,0.0224,0.0231,0.0224,0.0294,0.0294,0.0294,0.0294,0,-0.0378,-0.0411,-0.0463,-0.0522,-0.0583,-0.0629,-0.0645,-0.0642,-0.0641,-0.0588,-0.0569,-0.0427,-0.034,-0.0153,-0.003,0.0096,0.013,0.0165,0.0171,0.0172,0.0113,0.0051,0.009,0,0,0,0,0,-0.0387,-0.0428,-0.0491,-0.0558,-0.0619,-0.065,-0.0686,-0.0689,-0.0675,-0.0631,-0.0594,-0.0475,-0.0277,-0.0192,-0.0065,-0.0034,0.0141,0.0115,0.0181,0.0297,0.0297,0.0247,0,0,0,0,0,0,-0.0397,-0.0453,-0.0489,-0.057,-0.0619,-0.0681,-0.0703,-0.0697,-0.0661,-0.0627,-0.0517,-0.0453,-0.0256,-0.0342,-0.0064,-0.0027,0.0028,0.0213,0.0215,0.0298,0.0297,0.0297,0.0245,0,0,0,0,0]}]]